Date String (YYYY-MM-DD hh:mm:ss) UTC,Instrument flags,Ambient pressure (hPa),Sample flow (lpm),Bypass flow (lpm),Sample temperature (°C),Ambient temperature (°C),ASC tube jacket temperature (°C),LED temperature (°C),Box temperature (°C),Sample RH (%),Span deviation,Mass concentration (μg/m³),Mass concentration (μg/m³),Mass concentration (μg/m³)
DateTimeUTC,F1_M11,P_M11,Q1_M11,Q2_M11,T1_M11,T2_M11,T3_M11,T4_M11,T5_M11,U1_M11,ZSPAN_M11,X2_M11,X0_M11,X1_M11
2023-01-01 04:00:00,,0816.3,4.99,0.00,21.8,20.9,00.0,30.6,23.6,17.6,0000.0,0004.16,0006.90,0004.01
2023-01-01 04:01:00,,0816.4,5.09,0.00,21.8,20.9,00.0,30.6,23.7,17.6,0000.0,0004.21,0007.04,0004.06
2023-01-01 04:02:00,,0816.4,5.00,0.00,21.9,20.9,00.0,30.6,23.7,17.6,0000.0,0004.29,0007.21,0004.13
2023-01-01 04:03:00,,0816.5,4.97,0.00,21.9,21.0,00.0,30.7,23.7,17.6,0000.0,0004.34,0007.14,0004.20
2023-01-01 04:04:00,,0816.6,5.00,0.00,21.9,21.0,00.0,30.7,23.8,17.7,0000.0,0004.39,0007.21,0004.24
2023-01-01 04:05:00,,0816.4,5.02,0.00,21.9,21.0,00.0,30.7,23.8,17.6,0000.0,0004.43,0007.41,0004.29
2023-01-01 04:06:00,,0816.5,5.02,0.00,21.9,21.0,00.0,30.7,23.8,17.6,0000.0,0004.49,0007.82,0004.33
2023-01-01 04:07:00,,0816.5,4.99,0.00,22.0,21.1,00.0,30.7,23.8,17.6,0000.0,0004.53,0007.90,0004.35
2023-01-01 04:08:00,,0816.5,4.99,0.00,22.0,21.1,00.0,30.7,23.9,17.6,0000.0,0004.58,0008.13,0004.38
2023-01-01 04:09:00,,0816.5,4.98,0.00,22.0,21.1,00.0,30.7,23.9,17.6,0000.0,0004.60,0007.71,0004.40
2023-01-01 04:10:00,,0816.4,5.06,0.00,22.0,21.1,00.0,30.8,23.9,17.5,0000.0,0004.58,0007.39,0004.40
2023-01-01 04:11:00,,0816.4,5.01,0.00,22.1,21.1,00.0,30.8,23.9,17.4,0000.0,0004.56,0007.22,0004.39
2023-01-01 04:12:00,,0816.3,4.96,0.00,22.1,21.1,00.0,30.8,23.9,17.4,0000.0,0004.55,0007.19,0004.38
2023-01-01 04:13:00,,0816.3,5.02,0.00,22.1,21.1,00.0,30.8,24.0,17.4,0000.0,0004.55,0007.17,0004.38
2023-01-01 04:14:00,,0816.3,4.98,0.00,22.1,21.1,00.0,30.8,24.0,17.4,0000.0,0004.52,0007.14,0004.35
2023-01-01 04:15:00,,0816.3,5.03,0.00,22.1,21.2,00.0,30.9,24.0,17.4,0000.0,0004.50,0007.11,0004.32
2023-01-01 04:16:00,,0816.3,5.01,0.00,22.2,21.1,00.0,30.9,24.0,17.4,0000.0,0004.51,0007.05,0004.31
2023-01-01 04:17:00,,0816.4,5.00,0.00,22.2,21.2,00.0,30.9,24.0,17.3,0000.0,0004.51,0006.36,0004.31
2023-01-01 04:18:00,,0816.4,4.96,0.00,22.2,21.2,00.0,30.9,24.0,17.3,0000.0,0004.52,0006.40,0004.32
2023-01-01 04:19:00,,0816.5,5.00,0.00,22.2,21.2,00.0,30.9,24.0,17.3,0000.0,0004.53,0006.16,0004.34
2023-01-01 04:20:00,,0816.7,4.97,0.00,22.2,21.2,00.0,30.9,24.0,17.4,0000.0,0004.56,0006.25,0004.35
2023-01-01 04:21:00,,0816.8,5.00,0.00,22.2,21.2,00.0,30.9,24.0,17.4,0000.0,0004.55,0006.26,0004.33
2023-01-01 04:22:00,,0817.0,5.04,0.00,22.2,21.2,00.0,31.0,24.0,17.4,0000.0,0004.52,0006.24,0004.30
2023-01-01 04:23:00,,0816.7,4.99,0.00,22.2,21.1,00.0,31.0,24.0,17.4,0000.0,0004.48,0006.22,0004.26
2023-01-01 04:24:00,,0816.7,4.97,0.00,22.2,21.1,00.0,31.0,24.0,17.4,0000.0,0004.47,0006.29,0004.23
2023-01-01 04:25:00,,0816.9,4.98,0.00,22.2,21.1,00.0,31.0,24.0,17.5,0000.0,0004.43,0006.19,0004.20
2023-01-01 04:26:00,,0816.6,5.01,0.00,22.2,21.0,00.0,31.0,24.0,17.5,0000.0,0004.41,0006.18,0004.19
2023-01-01 04:27:00,,0816.8,5.02,0.00,22.2,20.9,00.0,31.0,23.9,17.6,0000.0,0004.39,0006.53,0004.18
2023-01-01 04:28:00,,0816.6,5.00,0.00,22.2,20.8,00.0,31.0,23.9,17.6,0000.0,0004.35,0006.82,0004.15
2023-01-01 04:29:00,,0816.6,4.97,0.00,22.1,20.7,00.0,31.0,23.8,17.6,0000.0,0004.32,0007.56,0004.14
2023-01-01 04:30:00,,0816.5,5.06,0.00,22.1,20.6,00.0,31.0,23.8,17.6,0000.0,0004.32,0007.58,0004.13
2023-01-01 04:31:00,,0816.5,5.00,0.00,22.1,20.6,00.0,31.0,23.8,17.7,0000.0,0004.34,0007.72,0004.14
2023-01-01 04:32:00,,0816.4,4.98,0.00,22.1,20.5,00.0,31.0,23.7,17.7,0000.0,0004.41,0008.59,0004.17
2023-01-01 04:33:00,,0816.5,4.98,0.00,22.0,20.5,00.0,31.0,23.7,17.7,0000.0,0004.47,0008.73,0004.23
2023-01-01 04:34:00,,0816.5,4.96,0.00,22.0,20.4,00.0,31.0,23.6,17.8,0000.0,0004.58,0008.83,0004.32
2023-01-01 04:35:00,,0816.5,5.05,0.00,22.0,20.3,00.0,31.0,23.6,17.8,0000.0,0004.72,0009.27,0004.45
2023-01-01 04:36:00,,0816.5,5.04,0.00,21.9,20.3,00.0,30.9,23.5,17.9,0000.0,0004.93,0009.64,0004.61
2023-01-01 04:37:00,,0816.6,4.97,0.00,21.9,20.2,00.0,30.9,23.5,18.0,0000.0,0005.11,0009.93,0004.75
2023-01-01 04:38:00,,0816.4,4.98,0.00,21.9,20.2,00.0,30.9,23.5,18.0,0000.0,0005.27,0010.07,0004.89
2023-01-01 04:39:00,,0816.4,4.97,0.00,21.9,20.2,00.0,30.9,23.5,18.0,0000.0,0005.39,0010.01,0005.00
2023-01-01 04:40:00,,0816.4,5.04,0.00,21.8,20.2,00.0,30.9,23.5,18.0,0000.0,0005.50,0009.69,0005.09
2023-01-01 04:41:00,,0816.4,5.01,0.00,21.8,20.1,00.0,30.8,23.4,18.0,0000.0,0005.59,0009.72,0005.16
2023-01-01 04:42:00,,0816.4,4.98,0.00,21.8,20.1,00.0,30.8,23.4,18.1,0000.0,0005.64,0010.00,0005.22
2023-01-01 04:43:00,,0816.4,4.96,0.00,21.8,20.1,00.0,30.8,23.4,18.1,0000.0,0005.70,0009.59,0005.28
2023-01-01 04:44:00,,0816.4,5.01,0.00,21.7,20.0,00.0,30.8,23.3,18.1,0000.0,0005.79,0009.57,0005.34
2023-01-01 04:45:00,,0816.4,5.03,0.00,21.7,19.9,00.0,30.8,23.3,18.2,0000.0,0005.81,0009.65,0005.36
2023-01-01 04:46:00,,0816.4,5.04,0.00,21.7,19.9,00.0,30.7,23.2,18.2,0000.0,0005.77,0009.35,0005.34
2023-01-01 04:47:00,,0816.5,4.98,0.00,21.6,19.9,00.0,30.7,23.2,18.2,0000.0,0005.76,0009.27,0005.33
2023-01-01 04:48:00,,0816.5,4.99,0.00,21.6,20.1,00.0,30.7,23.3,18.2,0000.0,0005.81,0009.27,0005.40
2023-01-01 04:49:00,,0816.6,5.01,0.00,21.7,21.1,00.0,30.6,23.5,18.2,0000.0,0005.87,0009.43,0005.48
2023-01-01 04:50:00,,0816.5,5.02,0.00,21.8,22.1,00.0,30.6,23.8,18.1,0000.0,0005.99,0009.97,0005.59
2023-01-01 04:51:00,,0816.5,4.98,0.00,21.9,22.3,00.0,30.7,24.0,17.9,0000.0,0006.09,0010.24,0005.70
2023-01-01 04:52:00,,0816.4,4.97,0.00,22.0,21.9,00.0,30.7,23.9,17.9,0000.0,0006.19,0010.71,0005.81
2023-01-01 04:53:00,,0816.4,4.99,0.00,22.0,21.6,00.0,30.8,23.9,17.9,0000.0,0006.24,0010.52,0005.88
2023-01-01 04:54:00,,0816.4,5.03,0.00,22.0,21.3,00.0,30.8,23.8,17.9,0000.0,0006.27,0010.27,0005.94
2023-01-01 04:55:00,,0816.4,5.06,0.00,22.0,21.1,00.0,30.8,23.7,17.9,0000.0,0006.28,0010.25,0005.97
2023-01-01 04:56:00,,0816.4,4.98,0.00,22.0,20.9,00.0,30.8,23.7,17.9,0000.0,0006.28,0010.25,0005.98
2023-01-01 04:57:00,,0816.4,4.97,0.00,21.9,20.7,00.0,30.8,23.6,17.9,0000.0,0006.29,0010.18,0005.99
2023-01-01 04:58:00,,0816.4,5.01,0.00,21.9,20.6,00.0,30.8,23.6,18.0,0000.0,0006.26,0010.13,0005.98
2023-01-01 04:59:00,,0816.4,5.05,0.00,21.9,20.5,00.0,30.8,23.5,18.0,0000.0,0006.17,0010.01,0005.90
